Home   Weather   East Toledo   Past weeks
Flag for USA

Past Weather in East Toledo, Ohio, USA — Yesterday and Last 2 Weeks

Currently: 64 °F. Clear. (Weather station: Toledo Suburban Airport, USA). See more current weather

Past Weather in East Toledo — Graph

°F

East Toledo Temperature Yesterday

Maximum temperature yesterday: 78 °F (at 4:15 pm)
Minimum temperature yesterday: 49 °F (at 4:55 am)
Average temperature yesterday: 64 °F

High & Low Weather Summary for the Past Weeks

 TemperatureHumidityPressure
High90 °F (Sep 14, 4:15 pm)100% (Sep 14, 9:24 pm)30.20 "Hg (Sep 14, 9:24 pm)
Low48 °F (Sep 23, 3:55 am)36% (Sep 26, 5:15 pm)29.67 "Hg (Sep 23, 4:35 am)
Average66 °F78%29.99 "Hg
* Reported Sep 12 9:15 pm — Sep 27 9:35 pm, East Toledo. Weather by CustomWeather, © 2021

Note: Actual official high and low records may vary slightly from our data, if they occured in-between our weather recording intervals... More about our weather records

East Toledo Weather History for the Previous 24 Hours

Scroll right to see more
 ConditionsComfort  
Time TempWeatherWind HumidityBarometerVisibility
9:35 pm
Mon, Sep 27
65 °FClear.No wind91%29.82 "Hg10 mi
9:15 pm65 °FClear.No wind94%29.82 "Hg10 mi
8:55 pm66 °FClear.No wind90%29.81 "Hg10 mi
8:15 pm67 °FClear.No wind93%29.80 "Hg10 mi
7:55 pm69 °FClear.No wind88%29.80 "Hg7 mi
7:35 pm70 °FClear.No wind79%29.79 "Hg10 mi
7:15 pm73 °FSunny.No wind70%29.78 "Hg10 mi
6:55 pm79 °FSunny.No wind50%29.77 "Hg10 mi
6:35 pm81 °FSunny.3 mph47%29.77 "Hg10 mi
6:15 pm82 °FSunny.6 mph46%29.77 "Hg10 mi
5:55 pm82 °FSunny.8 mph43%29.76 "Hg10 mi
5:35 pm83 °FSunny.6 mph43%29.76 "Hg10 mi
5:15 pm83 °FSunny.5 mph44%29.76 "Hg10 mi
4:55 pm83 °FSunny.9 mph43%29.76 "Hg10 mi
4:35 pm83 °FSunny.7 mph43%29.76 "Hg10 mi
4:15 pm83 °FSunny.5 mph44%29.76 "Hg10 mi
3:55 pm83 °FSunny.5 mph43%29.76 "Hg10 mi
3:35 pm82 °FSunny.10 mph45%29.76 "Hg10 mi
3:15 pm82 °FSunny.9 mph45%29.77 "Hg10 mi
2:55 pm81 °FSunny.10 mph45%29.78 "Hg10 mi
2:35 pm81 °FSunny.6 mph47%29.78 "Hg10 mi
2:15 pm80 °FSunny.9 mph47%29.79 "Hg10 mi
1:35 pm79 °FSunny.9 mph48%29.80 "Hg10 mi
12:55 pm78 °FSunny.10 mph49%29.81 "Hg10 mi
12:35 pm77 °FSunny.9 mph50%29.81 "Hg10 mi
12:15 pm76 °FSunny.10 mph51%29.81 "Hg10 mi
11:55 am75 °FSunny.7 mph52%29.81 "Hg10 mi
11:35 am74 °FSunny.12 mph53%29.82 "Hg10 mi
11:15 am73 °FSunny.13 mph54%29.83 "Hg10 mi
10:55 am72 °FSunny.12 mph55%29.83 "Hg10 mi
10:35 am70 °FSunny.12 mph58%29.83 "Hg10 mi
10:15 am69 °FSunny.8 mph59%29.84 "Hg10 mi
9:55 am68 °FSunny.13 mph60%29.84 "Hg10 mi
9:35 am67 °FSunny.6 mph61%29.85 "Hg10 mi
9:15 am66 °FSunny.12 mph61%29.85 "Hg10 mi
9:02 am65 °FSunny.10 mph62%29.85 "Hg10 mi
8:22 am64 °FSunny.7 mph64%29.85 "Hg10 mi
8:02 am64 °FSunny.8 mph60%29.85 "Hg10 mi
7:22 am64 °FClear.10 mph60%29.85 "Hg10 mi
6:44 am64 °FClear.7 mph60%29.86 "Hg10 mi
6:05 am64 °FClear.9 mph60%29.86 "Hg10 mi
5:44 am64 °FClear.9 mph60%29.87 "Hg10 mi
5:22 am64 °FClear.10 mph60%29.87 "Hg10 mi
1:23 am66 °FClear.10 mph56%29.91 "Hg10 mi
1:06 am68 °FClear.12 mph53%29.91 "Hg10 mi
12:43 am68 °FClear.10 mph53%29.91 "Hg10 mi
12:15 am69 °FClear.10 mph52%29.91 "Hg10 mi
11:55 pm
Sun, Sep 26
68 °FClear.8 mph53%29.91 "Hg10 mi
11:35 pm68 °FClear.9 mph53%29.91 "Hg10 mi
11:15 pm68 °FClear.10 mph52%29.91 "Hg10 mi
10:55 pm69 °FClear.12 mph50%29.90 "Hg10 mi
10:35 pm69 °FClear.10 mph49%29.91 "Hg10 mi
10:15 pm69 °FClear.12 mph47%29.91 "Hg10 mi
Weather by CustomWeather, © 2021

See weather overview